AirNav   Everest Fuels
 
 1034 users online  

89AK Lincoln Village Airpark
Wasilla, Alaska, USA

GOING TO WASILLA?


FAA INFORMATION EFFECTIVE 16 JULY 2020

Location

FAA Identifier: 89AK
Lat/Long: 61-33-33.8000N 149-42-19.6900W
61-33.563333N 149-42.328167W
61.5593889,-149.7054694
(estimated)
Elevation: 250 ft. / 76 m (estimated)
Variation: 24E (1995)
From city: 8 miles SW of WASILLA, AK
Time zone: UTC -8 (UTC -9 during Standard Time)
Zip code: 99652

Airport Operations

Airport use: Private use. Permission required prior to landing
Activation date: 03/2000
Control tower: no
ARTCC: ANCHORAGE CENTER
FSS: KENAI FLIGHT SERVICE STATION [907-283-7211]
Attendance: UNATNDD
Wind indicator: yes
Segmented circle: no

Airport Communications

CTAF: 122.8
WX AWOS-3P at IYS (5 nm E): 135.25 (907-373-3801)
WX AWOS-3P at BCV (10 nm SE): 135.55 (907-688-0826)
WX ASOS at FRN (18 nm S): 134.25
WX ASOS at PAQ (18 nm E): 134.75 (907-746-6675)

Nearby radio navigation aids

VOR radial/distance  VOR name  Freq  Var
BGQr076/7.5BIG LAKE VORTAC112.5019E
TEDr359/24.6ANCHORAGE VOR/DME113.1518E

 
NDB name  Hdg/Dist  Freq  Var  ID
CAMPBELL LAKE007/25.333816ECMQ -.-. -- --.-

Airport Services

Runway Information

Runway 16/34

Dimensions: 2000 x 200 ft. / 610 x 61 m
Surface: gravel
Operational restrictions: RY 16/34 SLOPES UP TO THE MIDDLE OF THE FIELD FROM BOTH ENDS.
RUNWAY 16  RUNWAY 34
Traffic pattern: leftleft

Airport Ownership and Management from official FAA records

Ownership: Privately-owned
Owner: LINCOLN VILLAGE AIRPARK ASSOCIATION
P.O. BOX 870526
WASILLA, AK 99687
Phone 907-892-2010
Manager: DENNIS GIESE
P.O. BOX 870526
WASILLA, AK 99687
Phone (907) 841-4933

Airport Operational Statistics

Aircraft based on the field: 16
Single engine airplanes: 15
Multi engine airplanes: 1
    

Additional Remarks

RY 16/34 SOFT WHEN WET.

Instrument Procedures

There are no published instrument procedures at 89AK.

Some nearby airports with instrument procedures:

PAGQ - Big Lake Airport (3 nm SW)
PAWS - Wasilla Airport (5 nm E)
PAUO - Willow Airport (15 nm NW)
PAFR - Bryant Army Airfield Heliport (18 nm S)
PAAQ - Warren "Bud" Woods Palmer Municipal Airport (18 nm E)
PAED - Elmendorf Air Force Base (19 nm S)
 
Loc | Ops | Rwys | IFR | FBO | Links
Com | Nav | Svcs | Stats | Notes

Crowley
 
Area around 89AK (Lincoln Village Airpark)
 
Road maps at: MapQuest Bing Google
 
Aerial photo
No photo
 
Sectional chart

 
Airport distance calculator
Flying to Lincoln Village Airpark? Find the distance to fly.

From to 89AK

Sunrise and sunset
Times for 09-Aug-2020
 Local
(UTC-8)
 Zulu
(UTC)
Morning civil twilight04:5512:55
Sunrise05:5413:54
Sunset22:1406:14
Evening civil twilight23:1307:13

Current date and time
Zulu (UTC)  10-Aug-2020 00:05:21
Local (UTC-8)  09-Aug-2020 16:05:21
 
METAR
PABV 
10nm SE 
092356Z AUTO 24009KT 10SM SCT033 19/10 A2963 RMK AO2 SLP038 T01890100 10194 20106 56013
PAFR 
18nm S 
092358Z AUTO 20007KT 9SM SCT035 18/09 A2961 RMK AO2 SLP032 T01790090 10185 20104 57008 $
PAAQ 
18nm E 
092353Z 25010KT 10SM SCT036 BKN060 BKN200 19/10 A2960 RMK AO2 SLP025 T01890100 10189 20122 57015 $
PAED 
19nm S 
092256Z 23014KT 10SM FEW030 FEW040 SCT075 BKN190 18/09 A2964 RMK AO2A TCU NW-S AND W SLP032 T01780094 $
TAF
PAAQ 
18nm E 
091723Z 0918/1018 VRB05KT P6SM VCSH FEW060 BKN130 OVC200 FM100400 00000KT P6SM -SHRA OVC050
PAED 
19nm S 
092146Z 0921/1024 23010G15KT 9999 VCSH FEW035 BKN095 BKN190 QNH2963INS BECMG 0923/0924 25010G18KT 9000 -SHRA FEW025 BKN030 OVC060 QNH2961INS BECMG 1004/1005 VRB06KT 9000 -SHRA SCT030 BKN050 QNH2963INS BECMG 1010/1011 VRB06KT 9999 VCSH SCT030 BKN050 QNH2967INS BECMG 1022/1023 25010G15KT 9999 VCSH SCT025 BKN040 QNH2970INS TX20/1001Z TN12/1018Z
NOTAMs
Click for the latest NOTAMs
NOTAMs are issued by the DoD/FAA and will open in a separate window not controlled by AirNav.

 

 
 

Would you like to see your business listed on this page?

 If your business provides an interesting product or service to pilots, flight crews, aircraft, or users of the Lincoln Village Airpark, you should consider listing it here.  To start the listing process, click on the button below
 
Add a business
 

Other Pages about Lincoln Village Airpark

Update a link
 
Copyright © AirNav, LLC. All rights reserved. Privacy Policy  Contact